User: anonymous   Login
Location: Unspecified
(0.0000°N, 0.0000°E)
Time: 18:40:59
(UTC+01:00)
Language:

ARIANE 5 R/B - Orbit

View from above orbital plane
View from above orbital plane
View from above satellite
View from above satellite

Ground track
Ground track

The orbit data is extracted from the following two-line orbital elements,

1 28379U 04027B   15030.57402472 -.00000454  00000-0 -12127-2 0  7585
2 28379 006.8151 266.3276 7299417 210.8144 012.8194 02.07924534 80068
Epoch (UTC): 30 January 2015 13:46:35
Eccentricity: 0.7299417
inclination: 6.8151°
perigee height: 624 km
apogee height: 38478 km
right ascension of ascending node: 266.3276°
argument of perigee: 210.8144°
revolutions per day: 2.07924534
mean anomaly at epoch: 12.8194°
orbit number at epoch: 8006

The dashed part of the orbit path shows where the satellite is in the earth's shadow,  

DLR